Regional Weather Roundup
Issued by NWS

Home | Current Version | Previous Version | Graphics & Text | Print | Product List | Glossary On
Versions: 1 2 3 4 5 6 7 8 9 10 11 12 13 14 15 16 17 18 19 20 21 22 23 24 25 26 27 28 29 30 31 32 33 34 35 36 37 38 39 40 41 42 43 44 45 46 47 48 49 50
000
ASUS45 KSLC 060110
RWRUT

UTAH REGIONAL WEATHER ROUNDUP
NATIONAL WEATHER SERVICE SALT LAKE CITY UT
700 PM MDT SUN JUL 05 2015

UTZ001>011-023>025-060200-

NORTHERN UTAH

CITY           SKY/WX    TMP DP  RH WIND       PRES   REMARKS
BRIGHAM CITY   CLOUDY    74  57  55 N22G32    30.03R
HILL AFB       CLOUDY    83  57  41 NW9       30.02R
LOGAN          PTSUNNY   76  61  59 NW8       30.02R
OGDEN          PTSUNNY   83  55  38 N10       29.99R
PROVO AIRPORT  MOSUNNY   86  57  37 NW14      29.97S
SALT LAKE CITY MOSUNNY   88  58  36 N12       29.95S
VERNAL         MOSUNNY   79  54  41 E14       30.05S
WENDOVER       SUNNY     91  41  17 NW23G29   29.96S
HEBER CITY     MOSUNNY   79  52  38 CALM      30.05S
WEST JORDAN    MOSUNNY   86  54  32 N13       29.99R

$$

UTZ012>022-026-027-060200-

SOUTHERN/CENTRAL UTAH

CITY           SKY/WX    TMP DP  RH WIND       PRES   REMARKS
BLANDING       PTSUNNY   74  60  61 E6        30.16S
BRYCE CANYON   PTSUNNY   74  43  32 NW12      30.25F
CEDAR CITY     CLOUDY    80  41  24 S10       30.08S
DELTA          MOSUNNY   92  32  12 NW10G21   29.95S
MILFORD        PTSUNNY   87  44  22 S17       29.99S
MOAB/CYNLANDS  MOSUNNY   84  58  40 E18       29.94S
PRICE          MOSUNNY   88  43  20 NW13G26   30.04S
ST GEORGE      CLEAR     90  48  24 S28G33    29.91R
KANAB          CLOUDY    82  46  28 W10       30.14

$$

REGIONAL REPORTS     COLORADO/ARIZONA

CITY           SKY/WX    TMP DP  RH WIND       PRES   REMARKS
CRAIG, CO      LGT RAIN  62  58  86 SE5       30.17F
GRAND JUNCTION CLOUDY    69  63  81 S10       30.04S
RIFLE          LGT RAIN  65  59  81 S7        30.11R
MONTROSE       PTSUNNY   73  57  57 S9        30.13F
CORTEZ         SUNNY     78  50  37 NW5       30.10F
PAGE, AZ       PTSUNNY   92  43  18 W9G17     29.96S
GRAND CANYON   CLOUDY    63  56  78 NE3       30.23F
KINGMAN        MOSUNNY   95  47  19 SW15G22   29.96F HX  91
FLAGSTAFF      PTSUNNY   69  52  54 VRB7      30.28S

$$

REGIONAL REPORTS    NEVADA/IDAHO/WYOMING

CITY           SKY/WX    TMP DP  RH WIND       PRES   REMARKS
LAS VEGAS, NV  CLOUDY    95  48  20 S15       29.82S HX  91
ELY            MOSUNNY   87  30  13 NW15G26   30.11R
ELKO           MOSUNNY   85  45  24 W18       30.05F
POCATELLO, ID  SUNNY     80  55  42 SW20      30.00S
BURLEY         PTSUNNY   74  58  57 SW12      29.99F
EVANSTON, WY   SUNNY     70  57  63 N12       30.19S
ROCK SPRINGS   PTSUNNY   65  57  75 VRB5      30.18S
KEMMERER       MOSUNNY   70  48  46 NW6       30.20S

$$


USA.gov is the U.S. government's official web portal to all federal, state and local government web resources and services.